Weather in Ukrainsk

Ukraine / Donetsk Region     48°05′50″N   37°21′48″E
temp.,
°C
wind,
m/s
gust,
m/s
humid.,
%
clouds,
%
prec.,
mm/h
press.,
hPa
HPBL,
m
1 march, mon
mon123:00+1nw3595100 0.1 1021435
02:000wnw3488100 0.2 1021235
05:000wnw249192 0.1 1022210
08:00+1nnw349095 0.3 1024340
11:00+3n336391 0.1 1026952
14:00+4n346695 0.2 1026838
17:00+3n227194 0.1 102766
20:00+2n238296 0.3 102894
2 march, tue
tue223:000n129071 0.1 102923
02:00−1w239237 0.1 102952
05:00−1w349031 0.0 1027126
08:00+1w587764 0.0 1027586
11:00+4w7106292 0.0 1025894
14:00+4wsw8126696 0.0 1022805
17:00+3wsw81474100 0.0 1019743
20:00+3wsw8148184 0.0 1018678
3 march, wed
wed323:00+2wnw61186100 0.1 1016741
02:00+1nw71196100 0.8 1016697
05:00+1nw71296100 0.1 1017743
08:00+1nnw7117893 0.3 1020814
11:00+3nnw796484 0.0 10221183
14:00+3nw796392 0.1 10231348
17:00+2nw586883 0.0 1024617
20:000wnw358042 0.0 1026159
4 march, thu
thu423:00−1w35850 0.0 1025131
02:00−1w35891 0.0 1026144
05:00−2wsw35890 0.0 1024136
08:00+1wsw58730 0.0 1024401
11:00+6wsw79515 0.0 1022968
14:00+7wsw710496 0.0 10191140
17:00+5sw511610 0.0 1017392
20:00+3sw7157112 0.0 1017485
5 march, fri
fri523:00+2sw61374100 0.0 1016455
02:00+1sw6158458 0.0 1015461
05:00+1sw614924 0.0 1015494
08:00+3sw7128741 0.0 1015554
11:00+6sw7107799 0.0 1014656
14:00+10sw7106375 0.0 10131001
17:00+7ssw6126525 0.0 1012600
20:00+4ssw6137921 0.0 1012431